Regional Weather Roundup
Issued by NWS

Home | Current Version | Previous Version | Graphics & Text | Print | Product List | Glossary On
Versions: 1 2 3 4 5 6 7 8 9 10 11 12 13 14 15 16 17 18 19 20 21 22 23 24 25 26 27 28 29 30 31 32 33 34 35 36 37 38 39 40 41 42 43 44 45 46 47 48 49 50
000
ASUS45 KCYS 171710
RWRWY

WYOMING REGIONAL WEATHER ROUNDUP
NATIONAL WEATHER SERVICE CHEYENNE WY
1000 AM MST SUN DEC 17 2017

NOTE:  "FAIR" INDICATES FEW OR NO CLOUDS BELOW 12,000 FEET
WITH NO SIGNIFICANT WEATHER AND/OR OBSTRUCTIONS TO VISIBILITY.

WYZ001-171800-
YELLOWSTONE NATIONAL PARK

CITY           SKY/WX    TMP DP  RH WIND       PRES   REMARKS
LK YELLOWSTONE   N/A      9   7  92 CALM      30.05R
W YELLOWSTONE  NOT AVBL

$$
WYZ002>013-054>058-071-098>099-171800-
NORTHERN WYOMING

CITY           SKY/WX    TMP DP  RH WIND       PRES   REMARKS
JACKSON        FLURRIES  14  11  87 NE5       30.10R WCI   6
CODY           FAIR      17   9  70 N5        29.89S WCI  10
GREYBULL       FAIR      26  24  92 S7        29.96F WCI  18
WORLAND        FOG       11  11 100 SW3       29.96S VSB 1/4
SHERIDAN       FOG       21  19  92 CALM      29.90F VSB<1/4
BUFFALO        FAIR      20  14  77 W7        29.86S HAZE    WCI  11
GILLETTE       FAIR      26  20  77 S15       29.88F WCI  14
HULETT         PTSUNNY   30  27  86 SW18G24   29.92S WCI  18
NEWCASTLE      CLOUDY    28  27  93 SE9       29.97S WCI  20

$$
WYZ014>020-022>026-101>103-171800-
CENTRAL WYOMING

CITY           SKY/WX    TMP DP  RH WIND       PRES   REMARKS
BIG PINEY      FAIR      23  12  62 N10       30.04S WCI  12
PINEDALE       FAIR      19  12  73 NW13      30.04R WCI   7
DUBOIS         FAIR      21  10  63 NW22G28   29.93S WCI   5
LANDER         FAIR      21  14  74 NW3       29.92S
RIVERTON       FAIR      23  15  71 W12       29.92F WCI  12
CASPER         FAIR      26  20  77 SW13      29.93S WCI  15
DOUGLAS        PTSUNNY   29  25  85 VRB3      29.95S

$$
WYZ021-027>030-104>119-171800-
SOUTHERN WYOMING

CITY           SKY/WX    TMP DP  RH WIND       PRES   REMARKS
EVANSTON       FAIR      19  16  88 SW12      30.10S WCI   7
FORT BRIDGER   FAIR      25  19  77 W15       30.11S WCI  12
ROCK SPRINGS   CLOUDY    21  13  71 W22       30.04S WCI   5
DIXON          LGT SNOW  26  21  80 CALM      30.08S
RAWLINS        PTSUNNY   27  20  75 W21G29    29.99R WCI  13
SARATOGA       CLOUDY    28  21  74 W12       30.01S WCI  18
LARAMIE        FAIR      22  18  85 S10       29.93F WCI  11
CHEYENNE       FAIR      28  27  96 SW12      29.96F WCI  18
TORRINGTON     CLOUDY    32  29  88 SW7       29.99F WCI  26
PINE BLUFFS    CLOUDY    30  30 100 MISG      30.01S

$$



USA.gov is the U.S. government's official web portal to all federal, state and local government web resources and services.